Время (UTC), дата Ветер
(°,м/с) 
Видим.   Явления Облачность Т
(°С)
Тd
(°С)
f(%) Тe
(°С)
Pmin
(гПа)
dP
(гПа)
Po
(мм)
O2
(г/м3)
Тmin Tmax R s Состояние
почвы
00 01.10.15 080 (В) 20000 м    9/0 средняя 
[Ac As]
+15.1 +13.5 90 +22  1017.6  0.2  724  274           
03 01.10.15 070 (В) 4000 м  дымка  10/10 100 м 
[St]
+15.9 +14.7 93 +26  1017.8  0.4  724  273  +14.6        сухая 
06 01.10.15 060 (СВ) 0500 м  слаб. морось{туман}  ?/?  
+15.8 +15 95 +26  1018.4  0.5  725  273           
09 01.10.15 070 (В) 20000 м  {морось, туман}  10/8 300 м средняя 
[Sc|Ac und]
+18.5 +13.9 75 +27  1018.5  0.5  725  271           
12 01.10.15 100 (В) 20000 м  {морось, туман}  9/5 600 м средняя 
[Sc|Ac trans]
+19.9 +13.6 67 +28  1018.9  0.7  725  270           
15 01.10.15 110 (В) 20000 м    9/9 600 м 
[Sc]
+18.4 +13.5 73 +26  1019.9  0.7  726  271    +20.1       
18 01.10.15 110 (В) 20000 м    10/5 1000 м средняя 
[Sc|Ac und]
+17 +13.4 79 +25  1021.3  727  273           
21 01.10.15 050 (СВ) 20000 м    10/0 средняя 
[Ac und]
+16.7 +11.8 73 +22  1021.5  0.1  727  274           
00 02.10.15 150 (ЮВ) 20000 м    10/3 600 м средняя 
[Sc|Ac und]
+16.2 +11.9 76 +21  1021.6  0.1  727  274           
03 02.10.15 150 (ЮВ) 20000 м    9/4 600 м средняя 
[Sc|Ac trans]
+15.6 +13.8 89 +23  1021.9  0.2  727  274  +15.6        сухая 
06 02.10.15 150 (ЮВ) 20000 м    9/3 600 м средняя 
[Sc|Ac trans]
+18.2 +13 72 +25  1022.5  728  272  +15.4         
09 02.10.15 190 (Ю) 20000 м    8/3 600 м средняя 
[Sc|Ac trans]
+21.8 +12.9 57 +28  1021.5  -0.3  728  269           
12 02.10.15 310 (СЗ) 20000 м    8/3 1000 м средняя, верхняя 
[Sc|Ac trans|Ci fib]
+22.6 +12.4 52 +28  1021  -0.4  727  268           
18 02.10.15 310 (СЗ) 20000 м    3/0 средняя 
[Ac trans]
+16.8 +11.5 71 +22  1022.7  0.1  728  274           
21 02.10.15 270 (З) 20000 м    4/0 средняя 
[Ac trans]
+14.1 +11.3 83 +18  1022.7  -0.5  727  276           
00 03.10.15 280 (З) 20000 м    3/0 средняя 
[Ac trans]
+16.5 +12.4 77 +22  1022.3  727  274           
03 03.10.15 250 (З) 10 км  {ливн. осадки}  3/3 600 м средняя 
[Sc diur, vesp|Ac trans]
+14.8 +13.4 91 +22  1022.5  0.1  727  275  +13.6        влажная 
06 03.10.15 260 (З) 20000 м    8/5 300 м средняя 
[Sc|Ac trans]
+19.2 +14 72 +28  1022.2  0.5  728  271           
09 03.10.15 260 (З) 8-11{13}  20000 м    4/4 600 м 
[Sc]
+22.6 +13 55 +29  1020.4  -1.1  727  268           
12 03.10.15 290 (З) 8-12{14}  20000 м    3/3 600 м 
[Sc]
+22.9 +9.4 42 +24  1019.5  -0.8  726  268           
15 03.10.15 270 (З) 6{13}  20000 м    3/3 600 м средняя 
[Sc|Ac trans]
+20 +9.7 51 +21  1019.5  -0.5  726  271    +23.8       
18 03.10.15 260 (З) 6{10}  20000 м    3/0 средняя 
[Ac trans]
+16.8 +11.7 72 +21  1021.7  1.5  727  274           
21 03.10.15 280 (З) 6{11}  20000 м    ясно 
+14.5 +7.3 62 +14  1022.9  0.7  728  277           
00 04.10.15 270 (З) 20000 м    ясно 
+12.2 +6.5 68 +11  1024  0.5  728  280           
03 04.10.15 260 (З) 20000 м    3/0 средняя 
[Ac trans]
+10.4 +5.6 72 +10  1024.6  0.3  728  282  +10.4        сухая 
06 04.10.15 250 (З) 20000 м    1/0 средняя 
[Ac trans]
+16.6 +8.6 59 +16  1024.4  0.9  729  275  +10.2         
09 04.10.15 300 (СЗ) 20000 м    1/0 верхняя 
[Ci fib]
+20.9 +3.2 31 +21  1023.3  -0.3  729  272           
12 04.10.15 330 (СЗ) 20000 м    ясно 
+22.3 -1.7 20 +22  1022.3  -0.8  728  271           
15 04.10.15 020 (С) 20000 м    1/0 верхняя 
[Ci fib]
+17.9 -1.2 27 +19  1023.1  728  275    +22.3       
18 04.10.15 060 (СВ) 20000 м    ясно 
+14.6 -1 34 +15  1023.9  0.2  728  279           
21 04.10.15 140 (ЮВ) 20000 м    ясно 
+12.9 -0.2 41 +14  1023.1  -1.1  727  280           
00 05.10.15 130 (ЮВ) 20000 м    ясно 
+11.8 +1.2 48 +12  1021.8  -1.4  726  280           
03 05.10.15 160 (Ю) 20000 м    3/0 средняя 
[Ac trans]
+11.5 +0.9 48 +12  1021.4  -0.4  726  280  +8.3        сухая 
06 05.10.15 120 (ЮВ) 20000 м    ясно 
+17.5 +0.7 32 +18  1020.2  0.1  726  275           
09 05.10.15 110 (В) 5{10}  20000 м    ясно 
+22.2 +1.1 25 +22  1017.7  0.1  725  270           
12 05.10.15 110 (В) 20000 м    ясно 
+22.9 +2.2 26 +23  1015.9  -1.6  724  269           
15 05.10.15 110 (В) 20000 м    1/0 средняя 
[Ac trans]
+17.5 +5.3 45 +18  1016.3  -0.5  723  273    +23.2       
18 05.10.15 140 (ЮВ) 20000 м    ясно 
+13.3 +6.5 63 +13  1016.4  -0.6  723  277           
21 05.10.15 180 (Ю) 20000 м    ясно 
+10.4 +6.5 77 +10  1015.3  -1.5  722  279           
00 06.10.15 170 (Ю) 20000 м    ясно 
+10 +8 87 +10  1014.4  -0.9  721  279           
03 06.10.15 120 (ЮВ) 4000 м  дымка  ясно 
+9.5 +8.6 94 +9  1013.6  -0.9  720  279  +9        сухая 
06 06.10.15 170 (Ю) 10 км    5/5 300 м 
[St]
+14.7 +11.1 79 +18  1012.3  -0.3  720  273           
09 06.10.15 130 (ЮВ) 20000 м    5/0 верхняя 
[Ci fib]
+21.4 +7 39 +21  1009.4  -1.6  719  267           
12 06.10.15 360 (С) 20000 м    8/0 верхняя 
[Ci]
+23.3 +3.9 28 +23  1007  -2.1  717  266           
15 06.10.15 330 (СЗ) 20000 м    8/0 верхняя 
[Ci fib]
+19.7 +3 33 +21  1007  -0.5  717  269    +24.1       
18 06.10.15 280 (З) 20000 м    6/0 верхняя 
[Ci fib]
+14.6 +3.8 48 +16  1007.5  -0.4  716  273           
21 06.10.15 220 (ЮЗ) 20000 м    3/0 средняя 
[Ac trans]
+13.1 +7.7 70 +14  1006.7  -1  716  274           
00 07.10.15 200 (Ю) 20000 м    ясно 
+11.3 +7.6 78 +12  1005.9  -1.1  715  275           
03 07.10.15 300 (СЗ) 20000 м    4/0 средняя 
[Ac trans]
+13.4 +3.5 51 +15  1004.5  -1  714  274  +10.5        сухая 
06 07.10.15 350 (С) 20000 м    4/0 верхняя 
[Ci fib]
+20.6 +2.1 29 +21  1003.5  -1  714  267           
09 07.10.15 080 (В) 20000 м    8/0 верхняя 
[Ci fib]
+22.9 +3.2 28 +23  1001.6  -1.3  713  265           
12 07.10.15 290 (З) 20000 м    8/3 1000 м средняя 
[Sc|Ac trans]
+22.4 +3.4 29 +22  1000.9  -0.8  713  265           
15 07.10.15 330 (СЗ) 7-11{13}  20000 м    9/5 1000 м кучево-дожд., средняя 
[Cb calv|Ac trans]
+18.9 -1.5 25 +19  1002.1  0.6  713  269    +23.8       
18 07.10.15 330 (СЗ) 5{13}  10 км  слаб. ливневой дождь  10/8 600 м кучево-дожд., средняя 
[Cb cap|Ac und]
+7.8 +4.9 82 +6  1007.6  3.3  716  279           
21 07.10.15 330 (СЗ) 5{11}  20000 м    10/8 600 м кучево-дожд., средняя 
[Cb calv|Ac und]
+3.1 +1.3 88 +1  1012.2  3.4  718  286           
00 08.10.15 330 (СЗ) 6-10{10}  4000 м  дымка  10/8 240 м кучево-дожд., средняя 
[Cb calv|Ac und]
+1 -0.3 91 -2  1015.3  2.5  720  289           
03 08.10.15 330 (СЗ) 5{10}  20000 м    10/8 300 м кучево-дожд., средняя 
[Cb calv|Ac und]
-1 -4.4 78 -4  1018.4  2.4  722  292  -1        сухая 
06 08.10.15 330 (СЗ) 20000 м    6/6 600 м 
[Sc]
-0.3 -5.7 67 -3  1021.5  3.1  724  293  -1.6         
09 08.10.15 350 (С) 20000 м    3/3 600 м 
[Sc]
+4 -8.6 39 +2  1021.7  725  289           
12 08.10.15 010 (С) 20000 м    ясно 
+5.9 -11.8 27 +5  1022.2  0.8  726  287           
15 08.10.15 020 (С) 20000 м    ясно 
+3.4 -12.4 30 +3  1024.1  1.4  727  290    +6.1       
18 08.10.15 080 (В) 20000 м    ясно 
-0.9 -9.9 51 -3  1025.6  0.5  727  295           
21 08.10.15 120 (ЮВ) 20000 м    ясно 
-0.3 -10.2 47 -1  1024.2  -1.2  726  294           
00 09.10.15 100 (В) 20000 м    ясно 
-2 -9.7 56 -3  1023.4  -1.1  725  295           
03 09.10.15 090 (В) 20000 м    4/0 средняя 
[Ac trans]
-2.4 -8.3 64 -4  1022.3  -1.1  725  295  -3.7        сухая 
06 09.10.15 110 (В) 20000 м    8/0 средняя 
[Ac trans]
+2.7 -7.6 47 +1  1021  -0.3  724  290           
09 09.10.15 120 (ЮВ) 20000 м    8/0 средняя 
[Ac trans]
+8.6 -4.9 38 +7  1018.3  -1.4  723  283           
12 09.10.15 170 (Ю) 20000 м    8/0 средняя 
[Ac trans]
+10.4 -4.6 34 +12  1016.9  -0.9  723  281           
15 09.10.15 310 (СЗ) 20000 м    10/5 600 м средняя 
[Sc|Ac und]
+8.4 -2.5 46 +7  1018.4  1.1  723  283    +10.6       
18 09.10.15 340 (С) 20000 м  {дождь}  10/4 600 м средняя 
[Sc|Ac und]
+6.6 -7.2 37 +6  1020.1  1.2  724  286           
21 09.10.15 360 (С) 20000 м    10/5 1000 м средняя 
[Sc|Ac und]
+5.1 -7.7 39 +5  1021.5  725  287           
00 10.10.15 330 (СЗ) 20000 м    10/0 средняя 
[Ac und]
+3.8 -10.2 35 +5  1022.9  726  289           
03 10.10.15 240 (ЮЗ) 20000 м    3/0 средняя 
[Ac trans]
-0.5 -9.7 50 -1  1024.4  0.7  726  294  -1.4        замёрзшая 
06 10.10.15 280 (З) 20000 м    ясно 
+6.8 -10 29 +5  1023.7  0.7  727  287           
09 10.10.15 290 (З) 20000 м    ясно 
+9.1 -10.4 24 +7  1023.3  727  284           
12 10.10.15 290 (З) 6{11}  20000 м    4/0 верхняя 
[Ci fib]
+9.7 -10.4 23 +8  1022.5  -0.6  726  284           
15 10.10.15 290 (З) 2{10}  20000 м    4/0 средняя, верхняя 
[Ac trans|Ci fib]
+6.3 -9.6 31 +6  1024  0.8  727  287    +9.9       
18 10.10.15 290 (З) 20000 м    3/0 средняя 
[Ac trans]
+4.1 -8 41 +4  1025.8  0.8  728  290           
21 10.10.15 300 (СЗ) 20000 м    4/0 средняя 
[Ac trans]
+2.4 -7.2 49 +1  1026.6  0.4  728  292           
00 11.10.15 240 (ЮЗ) 20000 м    3/0 средняя 
[Ac trans]
-0.1 -8.4 54 +1  1026.9  -0.2  728  294           
03 11.10.15 270 (З) 20000 м    4/0 средняя 
[Ac trans]
+0.7 -6.9 57 1026.2  -0.5  728  293  -2.1        сухая 
06 11.10.15 240 (ЮЗ) 20000 м    8/0 верхняя 
[Ci fib]
+6 -7.1 38 +6  1025.2  0.1  728  288           
09 11.10.15 340 (С) 20000 м    4/0 верхняя 
[Ci fib]
+10.1 -5.7 32 +10  1023.3  -1  727  283           
12 11.10.15 340 (С) 20000 м    3/0 верхняя 
[Ci fib]
+11.3 -6.4 28 +12  1021.7  -1.3  726  282           
15 11.10.15 030 (СВ) 20000 м    8/0 средняя, верхняя 
[Ac trans|Ci fib]
+8.7 -6.6 33 +8  1021.9  -0.3  726  284    +11.9       
18 11.10.15 090 (В) 20000 м    9/0 средняя 
[Ac trans]
+6.7 -6.6 38 +6  1022.1  -0.2  726  286           
21 11.10.15 120 (ЮВ) 20000 м    9/3 1000 м кучево-дожд., средняя 
[Cb calv|Ac trans]
+6.3 -6.3 40 +6  1021.4  -0.7  725  286           
00 12.10.15 140 (ЮВ) 20000 м  слаб. ливневой дождь  9/6 1000 м кучево-дожд., средняя 
[Cb cap|Ac trans]
+4.8 -1.9 62 +3  1020.6  -1  724  287           
03 12.10.15 120 (ЮВ) 20000 м  слаб. ливневой дождь  10/6 1000 м кучево-дожд., средняя 
[Cb cap|Ac und]
+3.2 +1.6 89 +4  1022  725  289  +3.2      влажная 
06 12.10.15 140 (ЮВ) 4000 м  дымка{ливн. осадки}  10/6 100 м средняя 
[St|Ac As]
+4.2 +3.2 93 +2  1022  0.2  725  287  +3         
09 12.10.15 080 (В) 10 км  слаб. ливневой дождь  10/6 300 м кучево-дожд., средняя 
[Cb calv|Ac und]
+6.6 +4.7 88 +4  1021  -0.5  725  284           
12 12.10.15 070 (В) 6{10}  4000 м  слаб. ливневой дождь  10/8 200 м кучево-дожд., средняя 
[Cb cap|Ac und]
+5.2 +4.1 93 +3  1021.8  0.5  725  286           
15 12.10.15 070 (В) 7-11{11}  3000 м  ливневой дождь  10/8 100 м кучево-дожд., средняя 
[Cb cap|Ac und]
+3.7 +2.6 92 +1  1023.4  1.2  726  288    +6.6  13     
18 12.10.15 090 (В) 7{11}  10 км  {ливн. осадки}  10/8 600 м кучево-дожд., средняя 
[Cb calv|Ac und]
+2.7 +1.1 89 -1  1024.9  1.2  727  290           
21 12.10.15 100 (В) 7{10}  20000 м    10/8 600 м средняя 
[Sc|Ac und]
+2.1 +0.1 87 -1  1024.9  0.1  727  291           
00 13.10.15 090 (В) 6{11}  20000 м    10/8 600 м средняя 
[Sc|Ac und]
+2.3 -0.3 83 -1  1024.6  -0.2  727  290           
03 13.10.15 090 (В) 7{10}  20000 м    10/10 600 м 
[Sc]
+2.2 -0.5 82 -1  1024.9  0.2  727  291  +2.1      влажная 
06 13.10.15 110 (В) 8-10{11}  20000 м    10/10 600 м 
[Sc]
+2.8 -0.9 77 -1  1025.1  0.3  727  290           
09 13.10.15 110 (В) 9-11{11}  20000 м    10/10 300 м 
[St]
+3 +0.1 81 -1  1024.9  0.1  727  290           
12 13.10.15 090 (В) 9-12{13}  20000 м    10/10 300 м 
[St]
+3.5 +0.7 82 1024.4  -0.4  727  289           
15 13.10.15 100 (В) 8-12{13}  20000 м    10/10 300 м 
[St]
+3.6 +1.1 84 1024.2  0.1  727  289    +3.6       
18 13.10.15 100 (В) 8-11{12}  10 км  в посл. час морось  10/10 200 м 
[St]
+4.4 +3.2 92 +1  1023.9  0.1  727  288           
21 13.10.15 100 (В) 10-13{15}  10 км  слаб. морось  10/10 100 м 
[St]
+5.4 +4.5 94 +2  1023.4  -0.3  727  286           
00 14.10.15 110 (В) 8-11{14}  10 км  {дождь, морось}  10/10 200 м 
[St]
+5.4 +4.5 94 +2  1023.3  0.1  726  286           
03 14.10.15 110 (В) 9-13{13}  10 км    10/10 200 м 
[St]
+5.1 +4.1 93 +2  1023.2  -0.2  726  287  +3.6      влажная 
06 14.10.15 110 (В) 9-11{14}  20000 м    10/10 200 м 
[St]
+5.1 +4.1 93 +2  1023.4  0.2  726  287           
09 14.10.15 100 (В) 8-11{12}  20000 м    10/10 200 м 
[St]
+6.2 +4.8 91 +3  1022.8  -0.3  726  285           
12 14.10.15 100 (В) 8-11{13}  20000 м  в посл. час дождь  10/10 200 м 
[St]
+6.1 +5 93 +3  1023.3  0.4  727  285           
15 14.10.15 120 (ЮВ) 6{12}  10 км  в посл. час дождь  10/10 100 м 
[St]
+6.3 +5.5 95 +4  1022.9  -0.4  726  285    +6.4     
18 14.10.15 120 (ЮВ) 7{11}  20000 м  {дождь}  10/10 200 м 
[St]
+7.9 +6.9 93 +6  1023.1  0.5  727  283           
21 14.10.15 120 (ЮВ) 6{12}  10 км  слаб. дождь  10/10 100 м 
[Ns]
+7.1 +6.3 95 +5  1022.5  -0.7  726  284           
00 15.10.15 110 (В) 3{10}  20000 м  {дождь}  10/10 200 м 
[St]
+6.8 +6 95 +6  1022.8  0.3  726  284           
03 15.10.15 150 (ЮВ) 0900 м  слаб. дождь{туман}  н/о 
+6.5 +5.8 95 +6  1022.6  -0.3  726  285  +6.3      влажная 
06 15.10.15 140 (ЮВ) 10 км  {дождь}  10/10 150 м 
[St]
+7.5 +6.8 95 +6  1022.4  726  284           
09 15.10.15 тихо ()   10 км  слаб. дождь  10/10 180 м 
[]
+9.2 +8.5 95 +9  1022.7  0.7  727  282           
12 15.10.15 060 (СВ) 0400 м  слаб. дождь{туман}  ?/?  
+8.8 +8 95 +9  1023  0.2  727  282           
15 15.10.15 030 (СВ) 0100 м  слаб. морось{дождь}  ?/?  
+8.2 +7.5 95 +8  1024.1  0.2  727  283    +9.7     
18 15.10.15 050 (СВ) 0200 м  морось{дождь}  ?/?  
+7.7 +7 95 +7  1025.1  0.8  728  284           
21 15.10.15 050 (СВ) 0100 м  морось  ?/?  
+4.5 +3.8 95 +2  1026.5  0.7  729  288           
00 16.10.15 070 (В) 1200 м  морось{туман}  10/10 100 м 
[St]
+3.1 +2.4 95 +1  1028.1  1.2  729  290           
03 16.10.15 070 (В) 4000 м  дымка{морось}  10/10 200 м 
[St]
+3.2 +2.5 95 +1  1029  0.9  730  290  +3      влажная 
06 16.10.15 070 (В) 4000 м  дымка{морось}  10/10 100 м 
[St]
+4.1 +3.4 95 +2  1030.7  1.8  731  290           
09 16.10.15 090 (В) 20000 м    4/4 600 м 
[Sc]
+8 +0.7 60 +6  1030.2  0.2  732  286           
12 16.10.15 060 (СВ) 20000 м    3/3 600 м 
[Sc]
+9.3 -0.2 51 +8  1029.8  0.1  732  285           
15 16.10.15 040 (СВ) 20000 м    1/0 средняя 
[Ac trans]
+5.4 -0.7 65 +4  1031.5  0.9  732  289    +9.5       
18 16.10.15 060 (СВ) 20000 м    ясно 
+2.7 -2.5 69 +1  1033.3  1.1  733  293           
21 16.10.15 120 (ЮВ) 20000 м    ясно 
+0.8 -2.3 80 -2  1033.4  -0.2  733  295           
00 17.10.15 100 (В) 20000 м    ясно 
-0.4 -3.5 80 -3  1033.3  -0.3  733  296           
03 17.10.15 100 (В) 20000 м    ясно 
-0.7 -3.9 79 -3  1033.3  0.1  733  296  -1.1        замёрзшая 
06 17.10.15 100 (В) 20000 м    ясно 
+5 -2.2 60 +2  1032.9  0.8  733  290           
09 17.10.15 110 (В) 8-10{11}  20000 м    ясно 
+9.9 -1.7 44 +8  1031.3  -0.6  733  285           
12 17.10.15 110 (В) 8-10{12}  20000 м    ясно 
+10.6 -0.7 45 +9  1029.6  -1.5  732  284           
15 17.10.15 100 (В) 5{11}  20000 м    ясно 
+6.3 +0.2 65 +4  1029.3  -1  731  288    +10.7       
18 17.10.15 110 (В) 20000 м    3/0 верхняя 
[Ci sp]
+4.2 -0.4 72 +2  1028.3  -1  730  290           
21 17.10.15 120 (ЮВ) 20000 м    ясно 
+3.4 -1.6 70 +1  1027.2  -1.2  729  290           
00 18.10.15 130 (ЮВ) 20000 м    ясно 
+2.8 -0.7 78 1025.9  -1.3  728  290           
03 18.10.15 130 (ЮВ) 20000 м    3/0 верхняя 
[Ci fib]
+1.2 -1 85 -1  1025.4  -0.8  727  292  +1.2        сухая 
06 18.10.15 140 (ЮВ) 20000 м    8/0 верхняя 
[Ci fib]
+4.9 +1.5 79 +3  1024.5  -0.2  727  288  +0.9         
09 18.10.15 120 (ЮВ) 20000 м    8/0 средняя, верхняя 
[Ac trans|Ci fib]
+12.1 +2.8 53 +11  1021.6  -1.3  726  280           
12 18.10.15 120 (ЮВ) 20000 м    6/0 средняя, верхняя 
[Ac trans|Ci fib]
+15 +0.7 38 +15  1020.2  -0.8  726  277           
15 18.10.15 150 (ЮВ) 20000 м    8/0 средняя, верхняя 
[Ac trans|Ci fib]
+9.7 +3.2 64 +8  1020.6  -0.6  725  282    +15.2       
18 18.10.15 190 (Ю) 20000 м    3/0 средняя 
[Ac trans]
+7 +2.3 72 +6  1020.3  -0.8  725  284           
21 18.10.15 250 (З) 20000 м    3/0 средняя 
[Ac trans]
+6 +0.3 67 +5  1019.9  -0.6  724  285           
00 19.10.15 270 (З) 20000 м    ясно 
+8.8 +1.9 62 +8  1018.7  -0.5  724  282           
03 19.10.15 300 (СЗ) 20000 м    4/0 средняя 
[Ac trans]
+9.3 +4.5 72 +9  1018.5  724  281  +4.4        сухая 
06 19.10.15 270 (З) 20000 м    8/0 средняя 
[Ac trans]
+12.5 +6.2 65 +11  1018.4  0.4  724  278           
09 19.10.15 270 (З) 7-11{12}  20000 м    5/1 300 м средняя 
[Sc|Ac trans]
+16.2 +6.4 52 +16  1017  -0.6  723  274           
12 19.10.15 270 (З) 6{12}  20000 м    10/6 600 м средняя 
[Sc|Ac und]
+14.3 +7.7 64 +14  1016.9  -0.5  723  276           
15 19.10.15 260 (З) 3{11}  20000 м    10/8 1000 м средняя 
[Sc|Ac und]
+12.5 +6.2 65 +12  1017.4  0.2  723  278    +16.6       
18 19.10.15 240 (ЮЗ) 20000 м    10/8 1000 м средняя 
[Sc|Ac und]
+11.6 +5.8 68 +11  1017.8  0.2  723  279           
21 19.10.15 270 (З) 20000 м    10/6 1000 м средняя 
[Sc|Ac und]
+11.3 +5.9 69 +11  1017.6  -0.2  723  279           
00 20.10.15 280 (З) 10 км    8/3 600 м средняя 
[Sc|Ac trans]
+9.3 +5.7 78 +9  1018  723  281           
03 20.10.15 320 (СЗ) 10 км    6/0 
[]
+7.2 +4.1 81 +8  1019.4  0.9  724  283  +6.1        сухая 
06 20.10.15 320 (СЗ) 10 км    9/0 средняя, верхняя 
[Ac trans|Cc]
+11.2 +2 53 +11  1019.6  0.9  725  280           
09 20.10.15 330 (СЗ) 10 км    6/0 средняя, верхняя 
[Ac trans|Ci fib]
+13.7 +2.3 46 +14  1019.1  725  278           
12 20.10.15 350 (С) 10 км    9/0 средняя, верхняя 
[Ac As|Ci sp]
+13 +3.3 52 +13  1019  -0.2  724  278           
15 20.10.15 030 (СВ) 10 км    8/0 средняя, верхняя 
[Ac As|Ci]
+9.1 +3.9 70 +9  1020.8  725  282    +14.8       
18 20.10.15 050 (СВ) 20000 м    9/0 средняя, верхняя 
[Ac trans|Ci]
+6.7 +2.1 72 +5  1022.1  0.7  726  285           
21 20.10.15 070 (В) 20000 м    4/0 средняя 
[Ac trans]
+4.6 +1 77 +3  1022.2  -0.4  725  287           
00 21.10.15 080 (В) 20000 м    3/0 средняя 
[Ac trans]
+2.6 +0.3 85 1022.4  0.1  725  289           
03 21.10.15 090 (В) 20000 м    9/0 средняя 
[Ac As]
+2.1 +0.2 87 -1  1022.1  -0.4  725  290  +2.1         
06 21.10.15 100 (В) 8-11{11}  20000 м    9/4 600 м средняя 
[Sc|Ac trans]
+3.1 -2.1 69 1022.9  0.9  726  289  +1.3         
09 21.10.15 110 (В) 10-13{13}  20000 м    8/3 600 м средняя 
[Sc|Ac trans]
+6.8 -1.4 56 +4  1021.7  -0.4  725  285           
12 21.10.15 120 (ЮВ) 9-12{15}  20000 м    8/3 600 м средняя 
[Sc|Ac trans]
+6.7 -1.1 57 +4  1020.8  -0.9  725  285           
15 21.10.15 110 (В) 7-10{13}  20000 м    3/0 средняя 
[Ac trans]
+3.2 -2.5 66 1021.8  0.3  725  289    +7.3       
18 21.10.15 120 (ЮВ) 7-10{11}  20000 м    4/0 средняя 
[Ac trans]
+2.7 -1.6 73 -1  1021.4  -0.5  725  289           
21 21.10.15 130 (ЮВ) 7-11{11}  20000 м    3/0 средняя 
[Ac trans]
+2.6 -0.3 81 -1  1020.5  -0.5  724  289           
00 22.10.15 130 (ЮВ) 11-15{15}  20000 м    10/6 300 м средняя 
[St|Ac und]
+3.7 +1.8 87 -1  1019.1  -1  723  287           
03 22.10.15 140 (ЮВ) 10-14{15}  20000 м    10/8 200 м средняя 
[St|Ac und]
+4 +2.7 91 1018.8  -0.3  723  287  +2.5         
06 22.10.15 140 (ЮВ) 10-14{14}  20000 м  в посл. час дождь  10/8 200 м средняя 
[St|Ac und]
+5.2 +3.8 91 +2  1019.2  0.6  723  285           
09 22.10.15 130 (ЮВ) 12-17{17}  20000 м    10/5 300 м средняя 
[Sc|Ac und]
+7.8 +4.6 80 +4  1017  -1.5  722  282           
12 22.10.15 130 (ЮВ) 11-16{18}  20000 м    10/6 300 м средняя 
[Sc|Ac und]
+8.8 +5.4 79 +6  1016.4  -0.4  722  281           
15 22.10.15 140 (ЮВ) 11-15{18}  20000 м    10/8 300 м средняя 
[Sc|Ac und]
+8.7 +5.4 80 +6  1016.6  0.2  722  281    +8.8     
18 22.10.15 130 (ЮВ) 6{12}  20000 м    10/8 300 м средняя 
[St|Ac und]
+8.7 +6.8 88 +7  1016.7  0.1  722  281           
21 22.10.15 130 (ЮВ) 6{11}  20000 м    10/8 300 м средняя 
[St|Ac und]
+8.5 +7 90 +7  1016.1  -0.6  722  281           
00 23.10.15 130 (ЮВ) 7{10}  20000 м    10/8 200 м средняя 
[St|Ac und]
+8.3 +6.9 91 +6  1015.3  -0.8  721  281           
03 23.10.15 140 (ЮВ) 7{11}  10 км    10/8 200 м средняя 
[St|Ac und]
+8.1 +6.7 91 +6  1014.7  -0.6  721  281  +8.1         
06 23.10.15 140 (ЮВ) 20000 м    9/4 200 м средняя 
[Ac trans]
+10.3 +7.4 82 +9  1014.6  0.3  721  279           
09 23.10.15 130 (ЮВ) 7{11}  20000 м    9/0 средняя 
[Ac trans]
+13.3 +7.7 69 +12  1012.2  0.3  720  275           
12 23.10.15 130 (ЮВ) 20000 м    9/0 средняя 
[Ac trans]
+14.7 +8.5 66 +14  1011.4  -0.6  719  273           
15 23.10.15 130 (ЮВ) 20000 м    9/4 1000 м средняя 
[Sc|Ac trans]
+11.2 +8 81 +11  1012.3  0.3  719  277    +15.1       
18 23.10.15 240 (ЮЗ) 20000 м    10/0 средняя 
[Ac und]
+10.5 +7.6 82 +12  1013.3  0.8  720  278           
21 23.10.15 170 (Ю) 20000 м    10/0 средняя 
[Ac und]
+11.1 +7.5 78 +12  1013  -0.2  720  277           
00 24.10.15 300 (СЗ) 20000 м    10/0 средняя 
[Ac und]
+14.1 +8.2 68 +15  1013  0.6  720  275           
03 24.10.15 140 (ЮВ) 20000 м  слаб. ливневой дождь  10/5 1000 м кучево-дожд., средняя 
[Cb calv|Ac und]
+11 +9.2 89 +12  1013.6  720  277  +9.5         
06 24.10.15 110 (В) 10 км  слаб. ливневой дождь  10/5 1000 м кучево-дожд., средняя 
[Cb calv|Ac und]
+13.5 +10.7 83 +17  1012.4  -0.6  720  274           
09 24.10.15 120 (ЮВ) 20000 м  {ливн. осадки}  10/3 1000 м средняя 
[Sc|Ac und]
+15.6 +10.5 72 +19  1010.9  -0.6  719  272           
12 24.10.15 030 (СВ) 20000 м  {ливн. осадки, дождь}  10/3 1000 м средняя 
[Sc diur, vesp|Ac und]
+15.5 +11.4 77 +20  1010.3  -0.6  719  272           
15 24.10.15 090 (В) 20000 м    10/4 1000 м средняя 
[Sc|Ac und]
+13.1 +10.1 82 +16  1010.6  -0.2  719  274    +17.5  0.3     
18 24.10.15 220 (ЮЗ) 20000 м  слаб. дождь  10/4 1000 м средняя 
[Sc|Ac und]
+12 +10.3 89 +14  1010.6  -0.2  718  275           
21 24.10.15 300 (СЗ) 6{12}  1200 м  слаб. морось{ливн. осадки, туман}  10/10 50 м 
[St]
+9.8 +9 95 +9  1013.5  2.3  720  278           
00 25.10.15 300 (СЗ) 5{10}  0200 м  слаб. морось{ливн. осадки, дождь}  ?/?  
+6.7 +5.9 95 +5  1015.7  1.5  721  283           
03 25.10.15 300 (СЗ) 1500 м  дымка{морось, туман}  10/10 100 м 
[St]
+5.8 +5.1 95 +4  1016.4  0.5  722  284  +5.8    0.5     
06 25.10.15 340 (С) 4000 м  в посл. час дождь{морось, туман}  10/10 100 м 
[Ns]
+5.1 +4.3 95 +4  1017.6  722  285  +5.1         
09 25.10.15 300 (СЗ) 3000 м  слаб. дождь  10/10 200 м 
[Frnb|Ns]
+4.9 +4.2 95 +3  1018.6  723  285           
12 25.10.15 290 (З) 5{10}  10 км  слаб. дождь  10/10 200 м 
[Frnb|Ns]
+5 +4 93 +3  1019.6  724  286           
15 25.10.15 280 (З) 10 км  {ливн. осадки}  10/10 200 м 
[St]
+4.3 +3 91 +2  1021.4  1.5  725  287    +5.8     
18 25.10.15 290 (З) 20000 м  {ливн. осадки}  10/10 300 м 
[St]
+4 +2.4 89 +2  1022.2  0.6  725  288           
21 25.10.15 270 (З) 10 км    5/0 верхняя 
[Ci fib]
+3.2 +1.4 88 +2  1022.6  0.3  726  289           
00 26.10.15 180 (Ю) 10 км    4/0 средняя 
[Ac trans]
+1.4 +0.3 92 +1  1023.4  0.3  726  291           
03 26.10.15 220 (ЮЗ) 20000 м    3/0 средняя 
[Ac trans]
+3.2 +0.3 81 +1  1022.5  -0.4  726  289  +1.4         
06 26.10.15 210 (ЮЗ) 20000 м    3/0 верхняя 
[Ci fib]
+8.8 +2.2 63 +8  1021.6  0.2  726  283           
09 26.10.15 190 (Ю) 20000 м    3/0 верхняя 
[Ci fib]
+13.7 +1.2 43 +14  1019.7  -0.9  725  278           
12 26.10.15 300 (СЗ) 20000 м    4/3 1000 м верхняя 
[Sc|Ci fib]
+14 +0.7 40 +14  1018.6  -1  724  277           
15 26.10.15 270 (З) 20000 м    3/0 средняя 
[Ac trans]
+9 +2.5 64 +9  1020.1  0.5  725  282    +14.9       
18 26.10.15 260 (З) 20000 м    6/0 средняя 
[Ac trans]
+7.1 +4 81 +6  1020.7  0.2  725  284           
21 26.10.15 240 (ЮЗ) 20000 м    6/0 средняя, верхняя 
[Ac trans|Ci fib]
+5.9 +3.6 85 +5  1020.6  -0.4  725  285           
00 27.10.15 230 (ЮЗ) 20000 м    8/0 средняя 
[Ac trans]
+7 +5 87 +7  1019.7  -0.6  724  284           
03 27.10.15 220 (ЮЗ) 20000 м    6/0 средняя, верхняя 
[Ac trans|Ci fib]
+5.6 +4.1 90 +5  1019.1  -0.9  723  285  +5.6         
06 27.10.15 250 (З) 20000 м    9/8 1000 м кучево-дожд., средняя 
[Cb calv|Ac trans]
+10 +4.7 70 +10  1019.2  724  281  +5.3         
09 27.10.15 280 (З) 20000 м    9/6 1000 м кучево-дожд., средняя 
[Cb calv|Ac trans]
+11.9 +4.6 61 +10  1018.6  -0.2  724  279           
12 27.10.15 290 (З) 5{10}  20000 м    10/6 1000 м кучево-дожд., средняя 
[Cb calv|Ac trans]
+8.8 +5.3 79 +7  1019.6  0.4  724  282           
15 27.10.15 310 (СЗ) 20000 м    10/5 600 м кучево-дожд., средняя 
[Cb calv|Ac und]
+7.4 +3.8 78 +7  1020.8  0.8  725  284    +13.4       
18 27.10.15 260 (З) 20000 м    10/3 600 м кучево-дожд., средняя 
[Cb calv|Ac und]
+6.3 +4.7 90 +6  1021.6  0.6  725  285           
21 27.10.15 300 (СЗ) 10 км    8/1 600 м кучево-дожд., средняя 
[Cb calv|Ac trans]
+5.7 +4 89 +5  1022.3  0.5  726  286           
00 28.10.15 280 (З) 10 км    1/0 средняя 
[Ac trans]
+2.2 +1.2 93 +1  1023  0.1  726  290           
03 28.10.15 280 (З) 20000 м    4/4 600 м 
[Sc]
+3.2 +1.5 89 +2  1023.2  0.4  727  289  +0.3         
06 28.10.15 260 (З) 20000 м    6/3 600 м средняя, верхняя 
[Sc|Ac trans|Ci fib]
+6.3 +2.9 79 +5  1023.3  0.7  727  286           
09 28.10.15 280 (З) 20000 м    8/5 600 м средняя, верхняя 
[Cu Sc|Ac trans|Ci fib]
+8.8 -0.2 53 +7  1022  -0.8  726  283           
12 28.10.15 270 (З) 20000 м    8/8 600 м 
[Sc]
+8.3 +0.1 56 +7  1021.5  -0.6  725  284           
15 28.10.15 270 (З) 20000 м    1/0 средняя 
[Ac trans]
+3.9 -1 70 +3  1023.1  0.7  726  288    +9.8       
18 28.10.15 240 (ЮЗ) 20000 м    3/3 600 м 
[Sc]
+2.7 -0.1 82 +1  1023.7  0.3  726  290           
21 28.10.15 280 (З) 20000 м    10/8 600 м средняя 
[Sc|Ac trans]
+5 +1.7 79 +3  1023.2  726  287           
00 29.10.15 240 (ЮЗ) 20000 м    10/10 600 м 
[Sc]
+3.9 +1 81 +3  1023.8  0.4  727  288           
03 29.10.15 300 (СЗ) 10 км    10/10 200 м 
[St]
+3.5 +1.6 87 +2  1024.9  727  289  +1.1         
06 29.10.15 320 (СЗ) 2000 м  дымка  10/10 100 м 
[St]
+2.9 +1.8 92 +2  1026.7  1.6  728  290           
09 29.10.15 330 (СЗ) 4000 м  дымка  8/8 300 м 
[St]
+4.4 +0.4 75 +3  1027.4  0.9  729  289           
12 29.10.15 360 (С) 20000 м    3/3 600 м 
[Sc]
+6.3 -2.3 54 +5  1027.4  0.4  729  287           
15 29.10.15 030 (СВ) 20000 м    ясно 
+1.9 -4.2 64 +1  1029.7  1.3  730  293    +6.8       
18 29.10.15 060 (СВ) 20000 м    ясно 
-0.4 -4.1 76 -3  1031  0.8  731  295           
21 29.10.15 100 (В) 20000 м    ясно 
-3 -5.8 81 -6  1031.8  0.1  731  298           
00 30.10.15 090 (В) 20000 м    ясно 
-2.7 -4.6 87 -6  1031.3  -0.4  731  298           
03 30.10.15 100 (В) 20000 м    ясно 
-4.1 -5.7 89 -7  1031.6  0.1  731  300  -4.3         
06 30.10.15 110 (В) 20000 м    ясно 
-0.3 -3.3 80 -3  1031.1  0.3  731  295           
09 30.10.15 090 (В) 7-10{10}  20000 м    ясно 
+5.7 -2.3 56 +3  1029.2  -0.7  731  289           
12 30.10.15 080 (В) 7{10}  20000 м    ясно 
+7.3 -1.8 52 +5  1028.3  -0.5  730  287           
15 30.10.15 080 (В) 4{10}  20000 м    ясно 
+2.6 -2.1 71 +1  1029.6  0.3  730  292    +7.5       
18 30.10.15 060 (СВ) 20000 м    3/0 верхняя 
[Ci fib]
-0.3 -3.5 79 -2  1030.6  0.4  731  295           
21 30.10.15 060 (СВ) 20000 м    4/0 верхняя 
[Ci fib]
-1.5 -4.4 81 -3  1031.9  731  297           
00 31.10.15 120 (ЮВ) 20000 м    6/0 верхняя 
[Ci fib]
-2.8 -4.9 86 -2  1032.5  0.3  732  298           
03 31.10.15 360 (С) 20000 м    8/4 1000 м средняя 
[Sc|Ac trans]
-2 -4.4 84 -4  1034.1  1.6  733  298  -3.5         
06 31.10.15 060 (СВ) 20000 м    ясно 
+1.2 -3.9 69 +1  1035.7  2.2  735  295  -3.9         
09 31.10.15 350 (С) 20000 м    1/1 600 м 
[Sc]
+4.2 -3.7 56 +2  1036.2  1.1  735  292           
12 31.10.15 010 (С) 20000 м    1/0 верхняя 
[Ci fib]
+3.7 -6.7 46 +1  1037.7  1.2  736  293           
15 31.10.15 030 (СВ) 20000 м    3/0 средняя 
[Ac trans]
-0.2 -5.8 66 -2  1040.4  1.8  738  298    +4.3       
18 31.10.15 050 (СВ) 20000 м    3/0 средняя 
[Ac trans]
-2.4 -6.3 75 -5  1042.6  1.5  739  301           
21 31.10.15 090 (В) 20000 м    ясно 
-4.6 -7.2 82 -8  1043.3  0.3  739  304           
00 01.11.15 110 (В) 20000 м    ясно 
-5.6 -8 83 -8  1043.6  0.1  739  305           
03 01.11.15 120 (ЮВ) 20000 м    ясно 
-5.4 -8.2 81 -8  1043.3  -0.3  739  305  -6         
06 01.11.15 160 (Ю) 20000 м    ясно 
-1.3 -5.8 72 -4  1041.9  -0.4  739  300           
Время (UTC), дата Ветер
(°,м/с) 
Видим.   Явления Облачность Т
(°С)
Тd
(°С)
f(%) Тe
(°С)
Pmin
(гПа)
dP
(гПа)
Po
(мм)
O2
(г/м3)
Тmin Tmax R s Состояние
почвы